Retour au catalogue

SKYNET 1

ActifMilitaireGEO
NORAD 4250·PAYLOAD·🇬🇧 United Kingdom

Lancé Nov 22, 1969 depuis Cape Canaveral Space Force Station

Loading…

TLE

FraisSource: Space-Track

Époque: Sep 14, 2026, 13:18 UTC

1 04250U 69101A   26257.55443080 -.00000099  00000-0  00000-0 0  9998
2 04250   0.6641  80.7056 0026090 160.5681 207.3599  1.00267857135415

Suivez SKYNET 1 en temps réel avec AllMySat

Download on the App Store